{"data":{"norad_id":68465,"intl_designator":"2026-067BB","name":"HOTSAT-2","alt_names":[],"object_type":"PAYLOAD","status":"ACTIVE","operator":null,"country":"UK","launch_date":"2026-03-30","launch_site_code":"AFWTR","launch_vehicle":null,"mission":null,"orbit_class":"UNKNOWN","rcs_meters":null,"size_class":null,"mass_kg":null,"dimensions":null,"purposes":[],"wikipedia_slug":null,"has_3d_model":false,"image_url":null,"decayed_at":null,"tle_current":{"epoch":"2026-09-20T02:39:19.027296Z","epoch_age_seconds":102515,"freshness":"FRESH","line1":"1 68465U 26067BB  26263.11063689  .00002140  00000+0  10854-3 0  9990","line2":"2 68465  97.4636 220.0712 0005137  97.1284 263.0534 15.18014836 26331","mean_motion":15.18014836,"eccentricity":0.0005137,"inclination_deg":97.4636,"raan_deg":220.0712,"arg_perigee_deg":97.1284,"mean_anomaly_deg":263.0534,"bstar":0.00010854,"rev_number":2633,"period_min":94.860732968489,"perigee_km":508.30154573201,"apogee_km":515.38030905461,"semimajor_km":6889.9779273933,"source":"CELESTRAK","updated_at":"2026-09-20T09:00:24.238895Z"}}}